QPF
0.08 0.13 0.02 0.02 0.03 0.07 0.12 0.15 0.04 0.03 0.00 0.00 0.00 0.00 0.02 0.01 0.00 0.00 0.00 0.00 0.00 0.00 0.00 0.00 0.00 0.00 0.00 0.00 0.00 0.00 0.00 0.00
0.06 0.19 0.07 0.03 0.02 0.05 0.06 0.07 0.08 0.05 0.00 0.00 0.00 0.00 0.00 0.00 0.00 0.00 0.00 0.00 0.00 0.00 0.00 0.00 0.00 0.00 0.00 0.00 0.00 0.00 0.00 0.00
0.10 0.21 0.15 0.08 0.06 0.05 0.02 0.01 0.08 0.12 0.02 0.00 0.00 0.00 0.00 0.00 0.00 0.00 0.00 0.00 0.00 0.00 0.00 0.00 0.00 0.00 0.00 0.00 0.00 0.00 0.00 0.00
0.17 0.16 0.10 0.07 0.04 0.02 0.01 0.00 0.03 0.12 0.07 0.00 0.00 0.00 0.00 0.00 0.00 0.00 0.00 0.00 0.00 0.00 0.00 0.00 0.00 0.00 0.00 0.00 0.00 0.00 0.00 0.00
0.11 0.08 0.04 0.04 0.02 0.00 0.00 0.00 0.01 0.04 0.11 0.02 0.00 0.00 0.00 0.00 0.00 0.00 0.00 0.00 0.00 0.00 0.00 0.00 0.00 0.00 0.00 0.00 0.00 0.00 0.00 0.00
0.04 0.02 0.02 0.02 0.00 0.00 0.00 0.00 0.01 0.04 0.08 0.02 0.00 0.00 0.00 0.00 0.00 0.00 0.00 0.00 0.00 0.00 0.00 0.00 0.00 0.00 0.00 0.00 0.00 0.00 0.00 0.00
0.03 0.01 0.01 0.00 0.00 0.00 0.00 0.00 0.00 0.02 0.06 0.01 0.00 0.00 0.00 0.00 0.00 0.00 0.00 0.00 0.00 0.00 0.00 0.00 0.00 0.00 0.00 0.00 0.00 0.00 0.00 0.00
0.02 0.01 0.00 0.00 0.00 0.00 0.00 0.00 0.00 0.01 0.03 0.01 0.00 0.00 0.00 0.00 0.00 0.00 0.00 0.00 0.00 0.00 0.00 0.00 0.00 0.00 0.00 0.00 0.00 0.00 0.00 0.00
0.03 0.03 0.01 0.00 0.00 0.00 0.00 0.00 0.00 0.00 0.02 0.00 0.00 0.00 0.00 0.00 0.00 0.00 0.00 0.00 0.00 0.00 0.00 0.00 0.00 0.00 0.00 0.00 0.00 0.00 0.00 0.00
0.01 0.01 0.01 0.00 0.00 0.00 0.00 0.00 0.00 0.01 0.01 0.00 0.00 0.00 0.00 0.00 0.00 0.00 0.00 0.00 0.00 0.00 0.00 0.00 0.00 0.00 0.00 0.00 0.00 0.00 0.00 0.00
0.00 0.01 0.02 0.00 0.00 0.01 0.00 0.00 0.00 0.01 0.01 0.01 0.00 0.00 0.00 0.00 0.00 0.00 0.00 0.00 0.00 0.00 0.00 0.00 0.00 0.00 0.00 0.00 0.00 0.00 0.00 0.00
0.00 0.01 0.01 0.00 0.00 0.01 0.00 0.01 0.00 0.03 0.02 0.01 0.00 0.00 0.00 0.00 0.00 0.00 0.00 0.00 0.00 0.01 0.03 0.00 0.00 0.00 0.00 0.00 0.00 0.00 0.00 0.00
0.00 0.00 0.00 0.00 0.00 0.00 0.00 0.00 0.00 0.01 0.02 0.01 0.00 0.00 0.00 0.00 0.00 0.00 0.00 0.01 0.02 0.02 0.02 0.01 0.00 0.00 0.00 0.00 0.00 0.00 0.00 0.00
0.00 0.00 0.00 0.00 0.00 0.00 0.00 0.00 0.00 0.00 0.01 0.00 0.00 0.00 0.00 0.01 0.01 0.01 0.00 0.01 0.02 0.01 0.01 0.01 0.01 0.00 0.00 0.00 0.00 0.00 0.00 0.00
0.00 0.00 0.00 0.00 0.00 0.00 0.00 0.00 0.00 0.00 0.00 0.00 0.00 0.00 0.00 0.02 0.03 0.03 0.03 0.03 0.04 0.03 0.01 0.00 0.01 0.00 0.00 0.00 0.00 0.00 0.00 0.00
0.00 0.00 0.00 0.00 0.00 0.00 0.00 0.00 0.00 0.00 0.00 0.00 0.00 0.00 0.00 0.00 0.01 0.01 0.02 0.02 0.03 0.02 0.01 0.00 0.00 0.00 0.00 0.00 0.00 0.00 0.00 0.00
0.00 0.00 0.00 0.00 0.00 0.00 0.00 0.00 0.00 0.00 0.00 0.00 0.00 0.00 0.00 0.00 0.00 0.00 0.00 0.00 0.00 0.00 0.00 0.00 0.00 0.00 0.00 0.00 0.00 0.00 0.00 0.00
0.00 0.00 0.00 0.00 0.00 0.00 0.00 0.00 0.00 0.00 0.00 0.00 0.00 0.00 0.00 0.00 0.00 0.00 0.00 0.00 0.00 0.00 0.00 0.00 0.03 0.05 0.05 0.04 0.02 0.01 0.00 0.00
0.00 0.00 0.00 0.00 0.00 0.00 0.00 0.00 0.00 0.00 0.00 0.00 0.00 0.00 0.00 0.00 0.00 0.00 0.00 0.00 0.00 0.00 0.00 0.00 0.01 0.01 0.02 0.03 0.03 0.03 0.02 0.00
0.00 0.00 0.00 0.00 0.00 0.00 0.00 0.00 0.00 0.00 0.00 0.00 0.00 0.00 0.00 0.00 0.00 0.00 0.00 0.00 0.00 0.00 0.00 0.00 0.02 0.03 0.03 0.04 0.04 0.04 0.03 0.01
MSLP
1012.32 1012.62 1012.87 1013.21 1013.58 1013.76 1014.13 1014.74 1015.34 1015.43 1016.13 1016.93 1016.63 1017.73 1018.61 1019.74 1020.44 1020.75 1020.88 1021.36 1021.78 1022.15 1022.54 1023.28 1023.49 1023.69 1024.17 1024.54 1024.77 1024.63 1024.31 1024.58
1012.36 1012.69 1012.86 1013.27 1013.64 1013.93 1014.15 1014.65 1015.46 1015.81 1016.00 1017.36 1017.29 1017.67 1018.93 1020.20 1020.75 1021.09 1021.28 1021.72 1021.96 1022.54 1022.90 1023.43 1023.84 1024.29 1024.66 1024.83 1025.15 1025.16 1024.94 1025.15
1012.44 1012.64 1012.67 1013.09 1013.39 1014.10 1014.43 1015.08 1015.50 1015.90 1016.25 1017.51 1017.90 1018.20 1019.06 1020.32 1020.85 1021.22 1021.60 1021.88 1022.31 1022.86 1023.31 1023.60 1024.14 1024.62 1024.90 1025.07 1025.24 1025.31 1025.39 1025.38
1012.26 1012.57 1012.63 1013.10 1013.76 1014.20 1014.94 1015.74 1015.88 1016.04 1016.85 1017.64 1018.52 1018.76 1019.31 1020.25 1021.10 1021.38 1021.84 1022.11 1022.65 1022.99 1023.55 1023.95 1024.25 1024.59 1025.00 1025.21 1025.27 1025.65 1025.76 1025.66
1011.78 1012.67 1011.76 1013.27 1014.02 1014.62 1015.28 1015.87 1016.28 1017.07 1017.45 1017.80 1018.99 1019.34 1019.87 1020.39 1021.14 1021.60 1022.13 1022.38 1022.94 1023.32 1023.81 1023.95 1024.31 1024.46 1024.84 1025.16 1025.38 1025.91 1026.02 1025.99
1012.11 1012.37 1012.64 1012.94 1014.22 1015.05 1015.35 1016.26 1016.92 1016.97 1017.49 1017.86 1019.05 1019.65 1019.95 1020.53 1020.97 1021.66 1022.06 1022.60 1022.92 1023.35 1023.66 1024.22 1024.46 1024.69 1025.06 1025.34 1025.56 1025.78 1026.17 1026.16
1013.03 1013.22 1013.32 1013.79 1014.58 1014.80 1015.76 1016.31 1016.75 1017.30 1017.76 1018.26 1019.01 1019.50 1019.98 1020.59 1021.32 1021.85 1022.14 1022.66 1022.77 1023.41 1023.73 1024.08 1024.55 1024.83 1025.14 1025.19 1025.45 1025.89 1026.32 1026.39
1013.20 1013.69 1013.93 1014.20 1014.58 1015.11 1015.88 1016.14 1016.76 1017.51 1017.79 1018.35 1018.84 1019.42 1020.10 1020.68 1021.26 1021.98 1022.43 1022.63 1023.02 1023.41 1023.52 1024.02 1024.60 1024.91 1025.45 1025.51 1025.70 1025.99 1026.19 1026.58
1013.20 1013.76 1014.26 1014.57 1014.97 1015.52 1016.13 1016.44 1016.99 1017.76 1017.84 1018.35 1019.08 1019.67 1020.09 1020.49 1021.02 1021.99 1022.53 1022.60 1023.25 1023.69 1023.99 1024.30 1024.57 1025.00 1025.27 1025.55 1025.86 1026.10 1026.20 1026.49
1013.65 1014.08 1014.51 1014.89 1015.34 1015.50 1016.27 1016.86 1017.19 1017.72 1018.22 1018.62 1019.26 1019.66 1020.02 1020.78 1021.23 1021.87 1022.50 1022.27 1023.06 1023.44 1023.95 1024.13 1024.36 1024.84 1025.30 1025.34 1025.85 1026.01 1026.23 1026.43
1013.83 1014.34 1014.65 1015.09 1015.66 1016.09 1016.47 1016.98 1017.39 1017.93 1018.06 1018.72 1019.30 1019.66 1020.30 1020.75 1021.43 1022.11 1022.39 1022.35 1022.99 1023.53 1023.86 1023.74 1024.27 1024.86 1025.14 1025.30 1025.68 1025.86 1026.12 1026.39
1013.94 1014.32 1014.93 1015.46 1016.05 1016.36 1016.85 1017.40 1017.63 1018.33 1018.53 1018.65 1019.33 1019.70 1020.34 1020.81 1021.49 1021.99 1022.25 1022.47 1022.90 1023.36 1023.71 1024.01 1024.22 1024.70 1024.92 1025.14 1025.39 1025.66 1025.92 1026.17
1013.91 1014.44 1014.85 1015.34 1016.06 1016.40 1016.99 1017.07 1017.64 1017.94 1018.66 1018.72 1019.05 1019.54 1020.35 1020.80 1021.30 1021.61 1022.21 1022.28 1022.51 1023.32 1023.83 1023.96 1024.12 1024.45 1025.01 1025.26 1025.49 1025.84 1025.98 1025.64
1013.81 1014.21 1014.80 1015.03 1015.64 1016.17 1016.54 1017.32 1017.82 1017.71 1018.17 1018.39 1018.70 1019.22 1019.88 1020.56 1020.93 1021.40 1021.51 1022.48 1022.20 1023.11 1023.46 1023.53 1023.76 1024.13 1024.20 1024.64 1024.74 1025.13 1025.15 1025.08
1013.46 1013.97 1014.44 1014.95 1015.28 1015.94 1016.69 1017.29 1017.71 1017.74 1017.78 1017.83 1017.99 1018.93 1019.72 1020.09 1020.88 1020.84 1021.57 1022.15 1021.85 1022.53 1022.79 1022.95 1023.04 1023.61 1023.81 1023.87 1024.37 1023.90 1024.32 1024.59
1013.16 1013.72 1014.22 1014.71 1015.00 1015.49 1015.89 1016.05 1016.56 1016.98 1017.33 1017.80 1018.53 1018.89 1019.12 1019.69 1020.14 1020.84 1021.72 1021.67 1021.85 1021.91 1021.91 1022.63 1022.54 1022.85 1023.89 1023.79 1024.00 1023.77 1023.85 1023.87
1012.67 1013.28 1013.93 1014.51 1014.68 1015.13 1015.67 1015.74 1016.18 1016.84 1017.06 1017.67 1018.17 1018.56 1018.85 1018.62 1018.77 1019.94 1021.06 1020.10 1020.78 1021.27 1021.79 1022.23 1022.26 1022.46 1022.64 1023.19 1023.63 1023.75 1023.91 1024.02
1012.39 1012.85 1013.55 1013.84 1014.46 1014.82 1015.23 1015.56 1015.88 1016.62 1017.00 1017.29 1017.85 1018.21 1018.29 1018.31 1018.82 1020.03 1020.47 1020.41 1020.92 1021.10 1021.13 1021.54 1021.81 1022.07 1022.38 1022.76 1022.90 1023.12 1023.10 1023.72
1012.15 1012.53 1012.63 1013.24 1013.89 1014.42 1014.93 1015.37 1015.80 1016.11 1016.51 1016.84 1017.48 1017.70 1017.99 1018.36 1018.63 1019.46 1019.65 1019.69 1020.07 1020.44 1020.60 1020.83 1021.05 1021.44 1021.78 1022.02 1022.33 1022.31 1022.33 1022.69
1011.18 1011.69 1012.17 1012.55 1013.07 1013.59 1014.26 1014.80 1015.31 1015.80 1016.01 1016.44 1016.77 1016.99 1017.24 1017.78 1018.17 1018.53 1018.61 1018.99 1019.38 1019.66 1019.90 1019.90 1020.29 1020.53 1020.85 1021.14 1021.29 1021.45 1021.83 1022.03
Thickness
5647 5648 5647 5650 5650 5651 5651 5648 5647 5651 5649 5646 5654 5649 5650 5643 5640 5641 5643 5640 5640 5641 5639 5633 5633 5634 5631 5628 5628 5628 5631 5629
5639 5641 5642 5643 5644 5645 5646 5643 5639 5641 5644 5637 5646 5647 5643 5636 5635 5636 5635 5633 5635 5634 5632 5628 5627 5625 5623 5623 5620 5620 5621 5620
5629 5632 5636 5636 5639 5638 5639 5636 5636 5636 5637 5633 5637 5639 5638 5632 5631 5632 5628 5629 5629 5626 5623 5623 5620 5618 5617 5617 5615 5613 5614 5615
5626 5626 5630 5629 5629 5633 5631 5626 5626 5630 5627 5629 5626 5631 5633 5630 5627 5626 5623 5623 5622 5621 5618 5617 5614 5611 5610 5611 5609 5607 5607 5609
5624 5609 5628 5616 5619 5625 5627 5622 5622 5621 5621 5621 5616 5620 5621 5624 5622 5619 5616 5616 5614 5613 5611 5610 5609 5608 5606 5604 5605 5600 5600 5602
5619 5618 5620 5619 5618 5620 5623 5618 5617 5619 5618 5618 5613 5615 5617 5617 5616 5613 5613 5610 5611 5608 5607 5603 5602 5601 5599 5598 5598 5598 5596 5598
5612 5612 5612 5615 5612 5619 5615 5614 5614 5612 5610 5611 5608 5611 5613 5609 5608 5606 5607 5605 5607 5604 5602 5599 5595 5594 5593 5595 5596 5595 5592 5593
5614 5611 5610 5612 5613 5613 5608 5609 5610 5607 5607 5608 5608 5609 5608 5606 5605 5600 5600 5601 5600 5598 5597 5595 5589 5587 5586 5588 5591 5590 5591 5589
5615 5613 5609 5609 5611 5609 5606 5605 5605 5602 5605 5606 5603 5604 5604 5604 5602 5595 5594 5598 5595 5592 5591 5588 5586 5583 5583 5585 5585 5586 5587 5587
5610 5610 5609 5608 5608 5609 5604 5602 5602 5601 5601 5602 5599 5599 5601 5599 5597 5594 5589 5595 5590 5589 5586 5585 5584 5581 5579 5583 5580 5583 5584 5584
5608 5605 5606 5605 5602 5601 5600 5599 5599 5598 5600 5598 5596 5596 5594 5594 5590 5587 5585 5587 5584 5581 5580 5582 5580 5576 5578 5580 5579 5580 5579 5579
5604 5605 5602 5601 5598 5598 5597 5596 5596 5592 5594 5596 5592 5593 5590 5588 5584 5583 5583 5583 5582 5579 5578 5576 5577 5575 5576 5578 5579 5579 5577 5576
5602 5602 5601 5601 5597 5597 5595 5595 5592 5592 5590 5592 5593 5591 5585 5583 5582 5582 5579 5581 5580 5576 5573 5574 5574 5574 5572 5573 5573 5572 5571 5576
5603 5601 5599 5599 5597 5595 5594 5591 5589 5591 5589 5589 5591 5590 5585 5582 5580 5578 5580 5574 5578 5573 5572 5575 5576 5574 5575 5574 5575 5575 5573 5576
5603 5602 5600 5598 5598 5593 5589 5586 5585 5588 5590 5592 5592 5586 5582 5581 5576 5579 5575 5571 5577 5574 5576 5577 5579 5576 5576 5578 5572 5579 5576 5575
5607 5604 5600 5596 5595 5592 5592 5594 5592 5590 5590 5588 5584 5581 5582 5579 5578 5573 5568 5572 5574 5576 5581 5576 5579 5578 5571 5573 5571 5576 5575 5575
5613 5608 5601 5596 5596 5592 5589 5592 5591 5586 5585 5582 5581 5579 5579 5584 5585 5577 5572 5582 5579 5579 5577 5573 5574 5575 5575 5571 5568 5568 5568 5566
5616 5610 5604 5604 5599 5598 5594 5592 5589 5584 5583 5582 5579 5579 5580 5582 5582 5575 5575 5576 5575 5574 5575 5573 5574 5573 5571 5569 5568 5563 5566 5559
5616 5612 5613 5608 5604 5600 5597 5594 5592 5591 5587 5587 5582 5582 5580 5580 5581 5579 5579 5580 5577 5575 5575 5575 5575 5573 5570 5567 5565 5565 5565 5560
5624 5619 5615 5614 5609 5605 5600 5598 5595 5592 5593 5591 5588 5587 5587 5583 5582 5582 5584 5581 5579 5577 5577 5579 5577 5575 5571 5567 5566 5566 5561 5558